Time,TemperatureF,DewpointF,PressureIn,WindDirection,WindDirectionDegrees,WindSpeedMPH,WindSpeedGustMPH,Humidity,HourlyPrecipIn,Conditions,Clouds,dailyrainin,SoftwareType,DateUTC
2013-02-27 00:00:00,39.7,37.0,29.48,SSE,156,6.0,-999.0,90,0.00,,,1.04,Wunderground v.1.15,2013-02-27 05:00:00,
2013-02-27 00:02:00,39.7,37.0,29.48,SSE,148,7.0,-999.0,90,0.00,,,0.00,Wunderground v.1.15,2013-02-27 05:02:00,
2013-02-27 00:07:00,39.7,37.0,29.48,SSE,164,6.0,-999.0,90,0.00,,,0.00,Wunderground v.1.15,2013-02-27 05:07:00,
2013-02-27 00:11:00,39.7,37.0,29.48,South,190,6.0,-999.0,90,0.00,,,0.00,Wunderground v.1.15,2013-02-27 05:11:00,
2013-02-27 00:17:00,39.7,37.0,29.48,SSE,167,6.0,-999.0,90,0.00,,,0.00,Wunderground v.1.15,2013-02-27 05:17:00,
2013-02-27 00:23:00,39.7,37.0,29.47,SSE,158,6.0,-999.0,90,0.00,,,0.00,Wunderground v.1.15,2013-02-27 05:23:00,
2013-02-27 00:29:00,39.7,37.0,29.47,SSE,160,4.0,-999.0,90,0.00,,,0.00,Wunderground v.1.15,2013-02-27 05:29:00,
2013-02-27 00:35:00,39.7,37.3,29.48,South,180,4.0,-999.0,91,0.00,,,0.00,Wunderground v.1.15,2013-02-27 05:35:00,
2013-02-27 00:41:00,39.7,37.3,29.48,SSE,167,4.0,-999.0,91,0.00,,,0.00,Wunderground v.1.15,2013-02-27 05:41:00,
2013-02-27 00:47:00,39.7,37.3,29.48,South,180,4.0,-999.0,91,0.00,,,0.00,Wunderground v.1.15,2013-02-27 05:47:00,
2013-02-27 00:52:00,39.7,37.3,29.48,SSE,158,1.0,-999.0,91,0.00,,,0.00,Wunderground v.1.15,2013-02-27 05:52:00,
2013-02-27 00:58:00,39.6,37.2,29.47,SSE,158,1.0,-999.0,91,0.00,,,0.00,Wunderground v.1.15,2013-02-27 05:58:00,
2013-02-27 01:04:00,39.6,37.2,29.47,SSE,161,1.0,-999.0,91,0.00,,,0.00,Wunderground v.1.15,2013-02-27 06:04:00,
2013-02-27 01:10:00,39.7,37.3,29.47,SSE,161,1.0,-999.0,91,0.00,,,0.00,Wunderground v.1.15,2013-02-27 06:10:00,
2013-02-27 01:16:00,39.7,37.3,29.47,SSE,163,2.0,-999.0,91,0.00,,,0.00,Wunderground v.1.15,2013-02-27 06:16:00,
2013-02-27 01:22:00,39.7,37.3,29.48,SSE,163,3.0,-999.0,91,0.00,,,0.00,Wunderground v.1.15,2013-02-27 06:22:00,
2013-02-27 01:28:00,39.8,37.4,29.48,SSE,162,3.0,-999.0,91,0.00,,,0.00,Wunderground v.1.15,2013-02-27 06:28:00,
2013-02-27 01:33:00,39.8,37.4,29.47,SSE,166,2.0,-999.0,91,0.00,,,0.00,Wunderground v.1.15,2013-02-27 06:33:00,
2013-02-27 01:39:00,39.8,37.4,29.47,SSE,162,2.0,-999.0,91,0.00,,,0.00,Wunderground v.1.15,2013-02-27 06:39:00,
2013-02-27 01:45:00,39.7,37.6,29.47,SSE,165,2.0,-999.0,92,0.00,,,0.00,Wunderground v.1.15,2013-02-27 06:45:00,
2013-02-27 01:51:00,39.7,37.6,29.47,SSE,165,1.0,-999.0,92,0.00,,,0.00,Wunderground v.1.15,2013-02-27 06:51:00,
2013-02-27 01:57:00,39.7,37.6,29.48,SSE,165,1.0,-999.0,92,0.00,,,0.00,Wunderground v.1.15,2013-02-27 06:57:00,
2013-02-27 02:03:00,39.6,37.5,29.48,SSE,165,1.0,-999.0,92,0.00,,,0.01,Wunderground v.1.15,2013-02-27 07:03:00,
2013-02-27 02:09:00,39.7,37.8,29.47,SE,146,1.0,-999.0,93,0.00,,,0.01,Wunderground v.1.15,2013-02-27 07:09:00,
2013-02-27 02:14:00,39.7,37.8,29.48,South,171,2.0,-999.0,93,0.00,,,0.01,Wunderground v.1.15,2013-02-27 07:14:00,
2013-02-27 02:20:00,39.7,37.8,29.47,South,171,1.0,-999.0,93,0.00,,,0.01,Wunderground v.1.15,2013-02-27 07:20:00,
2013-02-27 02:26:00,39.7,37.8,29.47,South,171,2.0,-999.0,93,0.00,,,0.01,Wunderground v.1.15,2013-02-27 07:26:00,
2013-02-27 02:32:00,39.6,37.7,29.47,South,171,1.0,-999.0,93,0.00,,,0.01,Wunderground v.1.15,2013-02-27 07:32:00,
2013-02-27 02:38:00,39.6,37.7,29.47,South,171,0.0,-999.0,93,0.00,,,0.01,Wunderground v.1.15,2013-02-27 07:38:00,
2013-02-27 02:44:00,39.6,37.7,29.47,South,171,1.0,-999.0,93,0.00,,,0.01,Wunderground v.1.15,2013-02-27 07:44:00,
2013-02-27 02:50:00,39.5,37.6,29.47,South,171,0.0,-999.0,93,0.00,,,0.01,Wunderground v.1.15,2013-02-27 07:50:00,
2013-02-27 02:56:00,39.6,37.7,29.47,South,171,0.0,-999.0,93,0.00,,,0.01,Wunderground v.1.15,2013-02-27 07:56:00,
2013-02-27 03:01:00,39.6,37.7,29.47,South,171,0.0,-999.0,93,0.00,,,0.02,Wunderground v.1.15,2013-02-27 08:01:00,
2013-02-27 03:07:00,39.7,37.8,29.47,South,171,0.0,-999.0,93,0.00,,,0.02,Wunderground v.1.15,2013-02-27 08:07:00,
2013-02-27 03:13:00,39.8,37.9,29.47,South,171,0.0,-999.0,93,0.04,,,0.03,Wunderground v.1.15,2013-02-27 08:13:00,
2013-02-27 03:19:00,40.0,38.1,29.46,South,171,0.0,-999.0,93,0.04,,,0.03,Wunderground v.1.15,2013-02-27 08:19:00,
2013-02-27 03:25:00,40.2,38.6,29.46,South,171,0.0,-999.0,94,0.04,,,0.03,Wunderground v.1.15,2013-02-27 08:25:00,
2013-02-27 03:31:00,40.5,38.9,29.46,South,171,1.0,-999.0,94,0.00,,,0.03,Wunderground v.1.15,2013-02-27 08:31:00,
2013-02-27 03:37:00,40.8,38.9,29.46,SSW,205,1.0,-999.0,93,0.00,,,0.03,Wunderground v.1.15,2013-02-27 08:37:00,
2013-02-27 03:43:00,41.2,39.6,29.46,SW,229,2.0,-999.0,94,0.00,,,0.03,Wunderground v.1.15,2013-02-27 08:43:00,
2013-02-27 03:49:00,41.5,39.9,29.47,SW,215,4.0,-999.0,94,0.00,,,0.04,Wunderground v.1.15,2013-02-27 08:49:00,
2013-02-27 03:55:00,41.4,39.8,29.47,West,259,4.0,-999.0,94,0.00,,,0.04,Wunderground v.1.15,2013-02-27 08:55:00,
2013-02-27 04:01:00,41.1,39.2,29.47,SW,222,5.0,-999.0,93,0.00,,,0.04,Wunderground v.1.15,2013-02-27 09:01:00,
2013-02-27 04:07:00,40.9,39.0,29.47,SW,219,6.0,-999.0,93,0.00,,,0.04,Wunderground v.1.15,2013-02-27 09:07:00,
2013-02-27 04:13:00,40.6,38.5,29.48,SSW,206,5.0,-999.0,92,0.00,,,0.05,Wunderground v.1.15,2013-02-27 09:13:00,
2013-02-27 04:18:00,40.4,38.3,29.48,South,175,4.0,-999.0,92,0.00,,,0.05,Wunderground v.1.15,2013-02-27 09:18:00,
2013-02-27 04:24:00,40.1,37.7,29.48,SW,226,6.0,-999.0,91,0.05,,,0.06,Wunderground v.1.15,2013-02-27 09:24:00,
2013-02-27 04:29:00,39.9,37.5,29.48,SW,229,5.0,-999.0,91,0.05,,,0.06,Wunderground v.1.15,2013-02-27 09:29:00,
2013-02-27 04:35:00,39.8,37.4,29.49,WSW,257,4.0,-999.0,91,0.08,,,0.07,Wunderground v.1.15,2013-02-27 09:35:00,
2013-02-27 04:41:00,39.6,37.2,29.49,SW,217,4.0,-999.0,91,0.06,,,0.07,Wunderground v.1.15,2013-02-27 09:41:00,
2013-02-27 04:47:00,39.3,36.9,29.49,WSW,246,5.0,-999.0,91,0.16,,,0.09,Wunderground v.1.15,2013-02-27 09:47:00,
2013-02-27 04:53:00,39.2,36.8,29.50,SW,225,5.0,-999.0,91,0.08,,,0.10,Wunderground v.1.15,2013-02-27 09:53:00,
2013-02-27 04:58:00,38.9,36.5,29.50,SW,233,3.0,-999.0,91,0.15,,,0.11,Wunderground v.1.15,2013-02-27 09:58:00,
2013-02-27 05:04:00,38.7,36.3,29.50,SW,232,3.0,-999.0,91,0.25,,,0.13,Wunderground v.1.15,2013-02-27 10:04:00,
2013-02-27 05:10:00,38.2,35.8,29.50,West,262,4.0,-999.0,91,0.15,,,0.14,Wunderground v.1.15,2013-02-27 10:10:00,
2013-02-27 05:16:00,37.9,35.5,29.51,WSW,248,5.0,-999.0,91,0.10,,,0.15,Wunderground v.1.15,2013-02-27 10:16:00,
2013-02-27 05:22:00,37.7,35.3,29.51,SW,232,3.0,-999.0,91,0.10,,,0.16,Wunderground v.1.15,2013-02-27 10:22:00,
2013-02-27 05:28:00,37.7,35.6,29.51,SW,236,3.0,-999.0,92,0.08,,,0.17,Wunderground v.1.15,2013-02-27 10:28:00,
2013-02-27 05:34:00,37.7,35.6,29.51,SSW,213,2.0,-999.0,92,0.06,,,0.17,Wunderground v.1.15,2013-02-27 10:34:00,
2013-02-27 05:40:00,37.8,35.7,29.51,SSW,194,2.0,-999.0,92,0.06,,,0.18,Wunderground v.1.15,2013-02-27 10:40:00,
2013-02-27 05:46:00,37.8,35.7,29.51,SSW,194,1.0,-999.0,92,0.05,,,0.19,Wunderground v.1.15,2013-02-27 10:46:00,
2013-02-27 05:52:00,37.8,35.7,29.52,SW,219,1.0,-999.0,92,0.05,,,0.19,Wunderground v.1.15,2013-02-27 10:52:00,
2013-02-27 05:58:00,38.0,36.2,29.52,SSW,198,3.0,-999.0,93,0.05,,,0.19,Wunderground v.1.15,2013-02-27 10:58:00,
2013-02-27 06:03:00,38.1,36.3,29.52,WSW,243,3.0,-999.0,93,0.05,,,0.20,Wunderground v.1.15,2013-02-27 11:03:00,
2013-02-27 06:10:00,38.2,36.4,29.52,South,189,2.0,-999.0,93,0.05,,,0.20,Wunderground v.1.15,2013-02-27 11:10:00,
2013-02-27 06:15:00,38.2,36.4,29.52,SW,226,3.0,-999.0,93,0.04,,,0.20,Wunderground v.1.15,2013-02-27 11:15:00,
2013-02-27 06:21:00,38.3,36.2,29.52,SSW,211,3.0,-999.0,92,0.00,,,0.21,Wunderground v.1.15,2013-02-27 11:21:00,
2013-02-27 06:27:00,38.3,36.2,29.52,SSW,202,3.0,-999.0,92,0.00,,,0.21,Wunderground v.1.15,2013-02-27 11:27:00,
2013-02-27 06:33:00,38.4,36.3,29.52,SSW,200,2.0,-999.0,92,0.00,,,0.21,Wunderground v.1.15,2013-02-27 11:33:00,
2013-02-27 06:39:00,38.4,36.3,29.53,SSW,196,2.0,-999.0,92,0.00,,,0.21,Wunderground v.1.15,2013-02-27 11:39:00,
2013-02-27 06:45:00,38.4,36.3,29.53,SSW,196,2.0,-999.0,92,0.00,,,0.21,Wunderground v.1.15,2013-02-27 11:45:00,
2013-02-27 06:51:00,38.4,36.3,29.53,South,188,3.0,-999.0,92,0.00,,,0.22,Wunderground v.1.15,2013-02-27 11:51:00,
2013-02-27 06:57:00,38.4,36.3,29.53,South,190,3.0,-999.0,92,0.00,,,0.22,Wunderground v.1.15,2013-02-27 11:57:00,
2013-02-27 07:02:00,38.4,36.3,29.53,South,190,3.0,-999.0,92,0.00,,,0.22,Wunderground v.1.15,2013-02-27 12:02:00,
2013-02-27 07:07:00,38.4,36.3,29.53,South,187,3.0,-999.0,92,0.00,,,0.22,Wunderground v.1.15,2013-02-27 12:07:00,
2013-02-27 07:13:00,38.5,36.4,29.53,South,184,2.0,-999.0,92,0.00,,,0.22,Wunderground v.1.15,2013-02-27 12:13:00,
2013-02-27 07:19:00,38.5,36.7,29.53,SSW,207,2.0,-999.0,93,0.00,,,0.23,Wunderground v.1.15,2013-02-27 12:19:00,
2013-02-27 07:25:00,38.6,36.8,29.54,SSW,206,2.0,-999.0,93,0.00,,,0.23,Wunderground v.1.15,2013-02-27 12:25:00,
2013-02-27 07:31:00,38.6,36.8,29.54,SSW,206,2.0,-999.0,93,0.00,,,0.23,Wunderground v.1.15,2013-02-27 12:31:00,
2013-02-27 07:37:00,38.7,36.9,29.54,SSW,206,2.0,-999.0,93,0.00,,,0.23,Wunderground v.1.15,2013-02-27 12:37:00,
2013-02-27 07:43:00,38.8,36.9,29.54,SSW,198,2.0,-999.0,93,0.00,,,0.23,Wunderground v.1.15,2013-02-27 12:43:00,
2013-02-27 07:48:00,38.8,36.9,29.55,SSW,207,2.0,-999.0,93,0.00,,,0.23,Wunderground v.1.15,2013-02-27 12:48:00,
2013-02-27 07:55:00,39.0,37.1,29.55,South,184,3.0,-999.0,93,0.00,,,0.23,Wunderground v.1.15,2013-02-27 12:55:00,
2013-02-27 07:59:00,39.1,37.2,29.56,SSW,212,4.0,-999.0,93,0.00,,,0.23,Wunderground v.1.15,2013-02-27 12:59:00,
2013-02-27 08:05:00,39.2,37.3,29.56,SSW,210,5.0,-999.0,93,0.00,,,0.23,Wunderground v.1.15,2013-02-27 13:05:00,
2013-02-27 08:11:00,39.3,37.2,29.56,WSW,240,5.0,-999.0,92,0.00,,,0.23,Wunderground v.1.15,2013-02-27 13:11:00,
2013-02-27 08:17:00,39.3,37.2,29.56,SW,227,5.0,-999.0,92,0.00,,,0.23,Wunderground v.1.15,2013-02-27 13:17:00,
2013-02-27 08:23:00,39.4,37.3,29.57,SSW,193,6.0,-999.0,92,0.00,,,0.23,Wunderground v.1.15,2013-02-27 13:23:00,
2013-02-27 08:28:00,39.5,37.4,29.57,SSW,205,7.0,-999.0,92,0.00,,,0.23,Wunderground v.1.15,2013-02-27 13:28:00,
2013-02-27 08:34:00,39.5,37.1,29.57,South,188,6.0,-999.0,91,0.00,,,0.23,Wunderground v.1.15,2013-02-27 13:34:00,
2013-02-27 08:40:00,39.6,37.2,29.57,SSW,194,6.0,-999.0,91,0.00,,,0.23,Wunderground v.1.15,2013-02-27 13:40:00,
2013-02-27 08:46:00,39.6,37.2,29.57,SW,226,7.0,-999.0,91,0.00,,,0.23,Wunderground v.1.15,2013-02-27 13:46:00,
2013-02-27 08:52:00,39.7,37.3,29.57,SSW,194,6.0,-999.0,91,0.00,,,0.23,Wunderground v.1.15,2013-02-27 13:52:00,
2013-02-27 08:57:00,39.7,37.0,29.57,WSW,237,6.0,-999.0,90,0.00,,,0.23,Wunderground v.1.15,2013-02-27 13:57:00,
2013-02-27 09:03:00,39.8,37.1,29.57,SW,223,6.0,-999.0,90,0.00,,,0.23,Wunderground v.1.15,2013-02-27 14:03:00,
2013-02-27 09:09:00,39.8,37.1,29.58,South,191,6.0,-999.0,90,0.00,,,0.23,Wunderground v.1.15,2013-02-27 14:09:00,
2013-02-27 09:15:00,39.8,37.1,29.58,SW,229,7.0,-999.0,90,0.00,,,0.23,Wunderground v.1.15,2013-02-27 14:15:00,
2013-02-27 09:21:00,39.8,36.8,29.58,SSW,207,7.0,-999.0,89,0.00,,,0.23,Wunderground v.1.15,2013-02-27 14:21:00,
2013-02-27 09:27:00,39.8,36.8,29.58,SSW,200,5.0,-999.0,89,0.00,,,0.23,Wunderground v.1.15,2013-02-27 14:27:00,
2013-02-27 09:32:00,39.8,36.8,29.58,SSW,209,6.0,-999.0,89,0.00,,,0.23,Wunderground v.1.15,2013-02-27 14:32:00,
2013-02-27 09:38:00,39.9,36.9,29.59,SSW,198,7.0,-999.0,89,0.00,,,0.23,Wunderground v.1.15,2013-02-27 14:38:00,
2013-02-27 09:44:00,39.8,36.8,29.59,WSW,257,6.0,-999.0,89,0.00,,,0.23,Wunderground v.1.15,2013-02-27 14:44:00,
2013-02-27 09:49:00,39.8,36.8,29.59,SW,221,6.0,-999.0,89,0.00,,,0.23,Wunderground v.1.15,2013-02-27 14:49:00,
2013-02-27 09:55:00,39.7,36.7,29.59,WSW,239,6.0,-999.0,89,0.00,,,0.23,Wunderground v.1.15,2013-02-27 14:55:00,
2013-02-27 10:01:00,39.9,36.9,29.59,South,188,5.0,-999.0,89,0.00,,,0.23,Wunderground v.1.15,2013-02-27 15:01:00,
2013-02-27 10:07:00,40.2,37.5,29.59,SW,229,5.0,-999.0,90,0.00,,,0.23,Wunderground v.1.15,2013-02-27 15:07:00,
2013-02-27 10:13:00,40.7,38.0,29.58,SSW,205,5.0,-999.0,90,0.00,,,0.23,Wunderground v.1.15,2013-02-27 15:13:00,
2013-02-27 10:19:00,40.8,37.8,29.58,WSW,243,6.0,-999.0,89,0.00,,,0.23,Wunderground v.1.15,2013-02-27 15:19:00,
2013-02-27 10:24:00,40.6,37.6,29.58,SSW,211,6.0,-999.0,89,0.00,,,0.23,Wunderground v.1.15,2013-02-27 15:24:00,
2013-02-27 10:30:00,40.5,37.5,29.58,WSW,250,6.0,-999.0,89,0.00,,,0.23,Wunderground v.1.15,2013-02-27 15:30:00,
2013-02-27 10:36:00,40.2,36.9,29.59,SW,215,6.0,-999.0,88,0.00,,,0.23,Wunderground v.1.15,2013-02-27 15:36:00,
2013-02-27 10:42:00,40.0,37.0,29.58,SW,215,7.0,-999.0,89,0.00,,,0.23,Wunderground v.1.15,2013-02-27 15:42:00,
2013-02-27 10:47:00,40.0,37.0,29.58,SW,236,7.0,-999.0,89,0.00,,,0.23,Wunderground v.1.15,2013-02-27 15:47:00,
2013-02-27 10:53:00,40.0,37.0,29.58,SW,215,7.0,-999.0,89,0.00,,,0.23,Wunderground v.1.15,2013-02-27 15:53:00,
2013-02-27 10:59:00,39.9,36.9,29.58,SW,224,6.0,-999.0,89,0.00,,,0.23,Wunderground v.1.15,2013-02-27 15:59:00,
2013-02-27 11:05:00,40.0,37.0,29.58,SW,232,5.0,-999.0,89,0.00,,,0.23,Wunderground v.1.15,2013-02-27 16:05:00,
2013-02-27 11:11:00,40.0,37.0,29.58,SSW,211,5.0,-999.0,89,0.00,,,0.23,Wunderground v.1.15,2013-02-27 16:11:00,
2013-02-27 11:17:00,40.1,37.1,29.58,WSW,238,5.0,-999.0,89,0.00,,,0.23,Wunderground v.1.15,2013-02-27 16:17:00,
2013-02-27 11:23:00,40.0,37.0,29.58,WSW,241,6.0,-999.0,89,0.00,,,0.23,Wunderground v.1.15,2013-02-27 16:23:00,
2013-02-27 11:29:00,40.1,37.1,29.58,SW,226,5.0,-999.0,89,0.00,,,0.23,Wunderground v.1.15,2013-02-27 16:29:00,
2013-02-27 11:35:00,40.1,37.1,29.58,SW,230,5.0,-999.0,89,0.00,,,0.23,Wunderground v.1.15,2013-02-27 16:35:00,
2013-02-27 11:41:00,40.1,37.1,29.58,WSW,239,6.0,-999.0,89,0.00,,,0.23,Wunderground v.1.15,2013-02-27 16:41:00,
2013-02-27 11:47:00,40.1,36.8,29.58,SW,228,6.0,-999.0,88,0.00,,,0.23,Wunderground v.1.15,2013-02-27 16:47:00,
2013-02-27 11:53:00,40.1,36.8,29.58,West,267,6.0,-999.0,88,0.00,,,0.23,Wunderground v.1.15,2013-02-27 16:53:00,
2013-02-27 11:59:00,40.1,36.8,29.58,SW,232,6.0,-999.0,88,0.00,,,0.23,Wunderground v.1.15,2013-02-27 16:59:00,
2013-02-27 12:04:00,40.1,36.8,29.58,WSW,253,6.0,-999.0,88,0.00,,,0.23,Wunderground v.1.15,2013-02-27 17:04:00,
2013-02-27 12:10:00,40.2,36.9,29.58,South,188,7.0,-999.0,88,0.00,,,0.23,Wunderground v.1.15,2013-02-27 17:10:00,
2013-02-27 12:16:00,40.2,36.9,29.58,SW,227,6.0,-999.0,88,0.00,,,0.23,Wunderground v.1.15,2013-02-27 17:16:00,
2013-02-27 12:22:00,40.2,36.6,29.58,South,179,6.0,-999.0,87,0.00,,,0.23,Wunderground v.1.15,2013-02-27 17:22:00,
2013-02-27 12:28:00,40.2,36.6,29.58,SW,231,5.0,-999.0,87,0.00,,,0.23,Wunderground v.1.15,2013-02-27 17:28:00,
2013-02-27 12:34:00,40.4,37.1,29.58,SSW,211,5.0,-999.0,88,0.00,,,0.23,Wunderground v.1.15,2013-02-27 17:34:00,
2013-02-27 12:40:00,40.6,37.0,29.58,WSW,252,5.0,-999.0,87,0.00,,,0.23,Wunderground v.1.15,2013-02-27 17:40:00,
2013-02-27 12:46:00,40.7,37.1,29.58,South,188,5.0,-999.0,87,0.00,,,0.23,Wunderground v.1.15,2013-02-27 17:46:00,
2013-02-27 12:51:00,40.7,36.8,29.57,SSW,213,5.0,-999.0,86,0.00,,,0.23,Wunderground v.1.15,2013-02-27 17:51:00,
2013-02-27 12:57:00,40.8,37.2,29.57,SSW,202,5.0,-999.0,87,0.00,,,0.23,Wunderground v.1.15,2013-02-27 17:57:00,
2013-02-27 13:03:00,40.8,37.2,29.57,SW,223,5.0,-999.0,87,0.00,,,0.23,Wunderground v.1.15,2013-02-27 18:03:00,
2013-02-27 13:09:00,40.8,36.9,29.57,SSW,208,6.0,-999.0,86,0.00,,,0.23,Wunderground v.1.15,2013-02-27 18:09:00,
2013-02-27 13:15:00,40.9,36.7,29.57,SW,227,5.0,-999.0,85,0.00,,,0.23,Wunderground v.1.15,2013-02-27 18:15:00,
2013-02-27 13:21:00,40.9,36.4,29.57,WSW,244,6.0,-999.0,84,0.00,,,0.23,Wunderground v.1.15,2013-02-27 18:21:00,
2013-02-27 13:27:00,41.0,36.5,29.57,SW,222,6.0,-999.0,84,0.00,,,0.23,Wunderground v.1.15,2013-02-27 18:27:00,
2013-02-27 13:33:00,41.0,36.5,29.57,SW,232,4.0,-999.0,84,0.00,,,0.23,Wunderground v.1.15,2013-02-27 18:33:00,
2013-02-27 13:39:00,41.0,36.2,29.57,WSW,241,6.0,-999.0,83,0.00,,,0.23,Wunderground v.1.15,2013-02-27 18:39:00,
2013-02-27 13:45:00,41.0,36.2,29.57,West,265,6.0,-999.0,83,0.00,,,0.23,Wunderground v.1.15,2013-02-27 18:45:00,
2013-02-27 13:51:00,40.9,36.1,29.57,SW,217,5.0,-999.0,83,0.00,,,0.23,Wunderground v.1.15,2013-02-27 18:51:00,
2013-02-27 13:57:00,40.9,36.1,29.57,SSW,211,5.0,-999.0,83,0.00,,,0.23,Wunderground v.1.15,2013-02-27 18:57:00,
2013-02-27 14:02:00,41.0,36.5,29.56,SW,220,5.0,-999.0,84,0.00,,,0.23,Wunderground v.1.15,2013-02-27 19:02:00,
2013-02-27 14:08:00,40.9,36.4,29.57,South,186,5.0,-999.0,84,0.00,,,0.23,Wunderground v.1.15,2013-02-27 19:08:00,
2013-02-27 14:14:00,40.8,36.3,29.57,SW,221,5.0,-999.0,84,0.00,,,0.23,Wunderground v.1.15,2013-02-27 19:14:00,
2013-02-27 14:20:00,40.9,36.4,29.56,SW,219,5.0,-999.0,84,0.00,,,0.23,Wunderground v.1.15,2013-02-27 19:20:00,
2013-02-27 14:26:00,41.0,36.8,29.56,SSW,213,5.0,-999.0,85,0.00,,,0.23,Wunderground v.1.15,2013-02-27 19:26:00,
2013-02-27 14:32:00,41.0,36.5,29.57,WSW,239,6.0,-999.0,84,0.00,,,0.23,Wunderground v.1.15,2013-02-27 19:32:00,
2013-02-27 14:38:00,41.1,36.3,29.57,SW,230,6.0,-999.0,83,0.00,,,0.23,Wunderground v.1.15,2013-02-27 19:38:00,
2013-02-27 14:44:00,41.1,36.3,29.57,West,265,6.0,-999.0,83,0.00,,,0.23,Wunderground v.1.15,2013-02-27 19:44:00,
2013-02-27 14:50:00,41.1,36.6,29.57,West,260,5.0,-999.0,84,0.00,,,0.23,Wunderground v.1.15,2013-02-27 19:50:00,
2013-02-27 14:55:00,40.9,36.4,29.57,SW,225,5.0,-999.0,84,0.00,,,0.23,Wunderground v.1.15,2013-02-27 19:55:00,
2013-02-27 15:01:00,40.7,36.5,29.57,WSW,242,4.0,-999.0,85,0.00,,,0.23,Wunderground v.1.15,2013-02-27 20:01:00,
2013-02-27 15:07:00,40.2,36.3,29.58,WSW,244,6.0,-999.0,86,0.00,,,0.23,Wunderground v.1.15,2013-02-27 20:07:00,
2013-02-27 15:12:00,39.8,36.2,29.58,WSW,244,6.0,-999.0,87,0.00,,,0.23,Wunderground v.1.15,2013-02-27 20:12:00,
2013-02-27 15:19:00,39.3,35.8,29.58,WSW,242,6.0,-999.0,87,0.00,,,0.23,Wunderground v.1.15,2013-02-27 20:19:00,
2013-02-27 15:25:00,39.2,35.9,29.58,SW,222,6.0,-999.0,88,0.00,,,0.23,Wunderground v.1.15,2013-02-27 20:25:00,
2013-02-27 15:31:00,39.2,35.9,29.58,SSW,192,6.0,-999.0,88,0.00,,,0.24,Wunderground v.1.15,2013-02-27 20:31:00,
2013-02-27 15:37:00,39.1,35.8,29.58,West,259,6.0,-999.0,88,0.00,,,0.24,Wunderground v.1.15,2013-02-27 20:37:00,
2013-02-27 15:43:00,39.0,35.7,29.58,West,266,7.0,-999.0,88,0.00,,,0.24,Wunderground v.1.15,2013-02-27 20:43:00,
2013-02-27 15:49:00,38.9,35.6,29.58,West,267,6.0,-999.0,88,0.00,,,0.24,Wunderground v.1.15,2013-02-27 20:49:00,
2013-02-27 15:54:00,38.8,35.6,29.59,WSW,242,6.0,-999.0,88,0.00,,,0.24,Wunderground v.1.15,2013-02-27 20:54:00,
2013-02-27 16:00:00,38.7,35.7,29.58,WSW,241,4.0,-999.0,89,0.00,,,0.25,Wunderground v.1.15,2013-02-27 21:00:00,
2013-02-27 16:06:00,38.7,35.7,29.59,NW,315,3.0,-999.0,89,0.00,,,0.25,Wunderground v.1.15,2013-02-27 21:06:00,
2013-02-27 16:12:00,38.4,35.4,29.59,SSW,200,4.0,-999.0,89,0.00,,,0.25,Wunderground v.1.15,2013-02-27 21:12:00,
2013-02-27 16:18:00,38.2,35.5,29.59,WNW,299,4.0,-999.0,90,0.00,,,0.25,Wunderground v.1.15,2013-02-27 21:18:00,
2013-02-27 16:24:00,37.8,35.1,29.59,WSW,238,4.0,-999.0,90,0.00,,,0.25,Wunderground v.1.15,2013-02-27 21:24:00,
2013-02-27 16:30:00,37.5,34.8,29.59,West,271,4.0,-999.0,90,0.00,,,0.26,Wunderground v.1.15,2013-02-27 21:30:00,
2013-02-27 16:36:00,37.5,34.8,29.59,SW,232,3.0,-999.0,90,0.06,,,0.27,Wunderground v.1.15,2013-02-27 21:36:00,
2013-02-27 16:41:00,37.3,34.6,29.59,West,281,3.0,-999.0,90,0.06,,,0.27,Wunderground v.1.15,2013-02-27 21:41:00,
2013-02-27 16:47:00,37.2,34.8,29.60,SSW,211,3.0,-999.0,91,0.05,,,0.27,Wunderground v.1.15,2013-02-27 21:47:00,
2013-02-27 16:53:00,37.0,34.6,29.60,SW,218,2.0,-999.0,91,0.00,,,0.28,Wunderground v.1.15,2013-02-27 21:53:00,
2013-02-27 16:59:00,36.9,34.5,29.59,SW,217,2.0,-999.0,91,0.00,,,0.28,Wunderground v.1.15,2013-02-27 21:59:00,
2013-02-27 17:04:00,36.8,34.4,29.59,SW,219,2.0,-999.0,91,0.00,,,0.28,Wunderground v.1.15,2013-02-27 22:04:00,
2013-02-27 17:10:00,36.9,34.5,29.59,SW,214,2.0,-999.0,91,0.00,,,0.28,Wunderground v.1.15,2013-02-27 22:10:00,
2013-02-27 17:16:00,37.0,34.6,29.60,SW,223,2.0,-999.0,91,0.00,,,0.28,Wunderground v.1.15,2013-02-27 22:16:00,
2013-02-27 17:22:00,37.0,34.6,29.60,SW,224,2.0,-999.0,91,0.00,,,0.28,Wunderground v.1.15,2013-02-27 22:22:00,
2013-02-27 17:28:00,37.1,34.7,29.60,South,188,3.0,-999.0,91,0.00,,,0.28,Wunderground v.1.15,2013-02-27 22:28:00,
2013-02-27 17:34:00,37.1,34.7,29.60,SSW,197,3.0,-999.0,91,0.00,,,0.29,Wunderground v.1.15,2013-02-27 22:34:00,
2013-02-27 17:39:00,37.1,34.7,29.60,SW,226,3.0,-999.0,91,0.00,,,0.29,Wunderground v.1.15,2013-02-27 22:39:00,
2013-02-27 17:45:00,37.1,34.7,29.60,WSW,238,3.0,-999.0,91,0.00,,,0.29,Wunderground v.1.15,2013-02-27 22:45:00,
2013-02-27 17:51:00,37.0,34.6,29.60,SSW,210,3.0,-999.0,91,0.00,,,0.29,Wunderground v.1.15,2013-02-27 22:51:00,
2013-02-27 17:57:00,36.9,34.5,29.61,SW,235,3.0,-999.0,91,0.00,,,0.29,Wunderground v.1.15,2013-02-27 22:57:00,
2013-02-27 18:03:00,36.7,34.3,29.62,West,280,4.0,-999.0,91,0.00,,,0.30,Wunderground v.1.15,2013-02-27 23:03:00,
2013-02-27 18:09:00,36.3,33.9,29.62,WNW,286,3.0,-999.0,91,0.10,,,0.31,Wunderground v.1.15,2013-02-27 23:09:00,
2013-02-27 18:14:00,36.1,33.7,29.62,West,275,3.0,-999.0,91,0.07,,,0.31,Wunderground v.1.15,2013-02-27 23:14:00,
2013-02-27 18:20:00,36.0,33.6,29.62,SSW,206,3.0,-999.0,91,0.04,,,0.31,Wunderground v.1.15,2013-02-27 23:20:00,
2013-02-27 18:26:00,35.8,33.4,29.62,WSW,239,5.0,-999.0,91,0.00,,,0.31,Wunderground v.1.15,2013-02-27 23:26:00,
2013-02-27 18:32:00,35.6,33.2,29.62,SW,225,4.0,-999.0,91,0.00,,,0.32,Wunderground v.1.15,2013-02-27 23:32:00,
2013-02-27 18:38:00,35.4,33.0,29.63,SW,225,4.0,-999.0,91,0.00,,,0.32,Wunderground v.1.15,2013-02-27 23:38:00,
2013-02-27 18:43:00,35.2,32.8,29.62,WSW,239,2.0,-999.0,91,0.00,,,0.32,Wunderground v.1.15,2013-02-27 23:43:00,
2013-02-27 18:49:00,35.2,32.8,29.62,West,279,3.0,-999.0,91,0.04,,,0.33,Wunderground v.1.15,2013-02-27 23:49:00,
2013-02-27 18:55:00,35.3,32.9,29.62,SSW,202,2.0,-999.0,91,0.04,,,0.33,Wunderground v.1.15,2013-02-27 23:55:00,
2013-02-27 19:01:00,35.3,32.9,29.62,SW,214,2.0,-999.0,91,0.00,,,0.33,Wunderground v.1.15,2013-02-28 00:01:00,
2013-02-27 19:07:00,35.3,32.9,29.62,SSW,211,2.0,-999.0,91,0.00,,,0.33,Wunderground v.1.15,2013-02-28 00:07:00,
2013-02-27 19:13:00,35.3,32.9,29.62,SSW,211,2.0,-999.0,91,0.00,,,0.33,Wunderground v.1.15,2013-02-28 00:13:00,
2013-02-27 19:19:00,35.3,32.9,29.63,SSW,212,2.0,-999.0,91,0.00,,,0.33,Wunderground v.1.15,2013-02-28 00:19:00,
2013-02-27 19:25:00,35.3,32.9,29.63,SSW,211,2.0,-999.0,91,0.00,,,0.33,Wunderground v.1.15,2013-02-28 00:25:00,
2013-02-27 19:30:00,35.4,33.0,29.63,SW,225,2.0,-999.0,91,0.00,,,0.33,Wunderground v.1.15,2013-02-28 00:30:00,
2013-02-27 19:36:00,35.3,32.7,29.63,West,263,3.0,-999.0,90,0.00,,,0.33,Wunderground v.1.15,2013-02-28 00:36:00,
2013-02-27 19:42:00,35.4,32.8,29.62,SW,217,4.0,-999.0,90,0.00,,,0.33,Wunderground v.1.15,2013-02-28 00:42:00,
2013-02-27 19:47:00,35.3,32.7,29.62,SW,224,3.0,-999.0,90,0.00,,,0.33,Wunderground v.1.15,2013-02-28 00:47:00,
2013-02-27 19:53:00,35.2,32.3,29.62,SW,232,3.0,-999.0,89,0.00,,,0.33,Wunderground v.1.15,2013-02-28 00:53:00,
2013-02-27 19:59:00,35.2,32.3,29.62,WSW,248,4.0,-999.0,89,0.00,,,0.33,Wunderground v.1.15,2013-02-28 00:59:00,
2013-02-27 20:05:00,35.1,32.2,29.62,SW,224,4.0,-999.0,89,0.00,,,0.33,Wunderground v.1.15,2013-02-28 01:05:00,
2013-02-27 20:11:00,35.1,32.2,29.62,SW,235,4.0,-999.0,89,0.00,,,0.33,Wunderground v.1.15,2013-02-28 01:11:00,
2013-02-27 20:16:00,35.1,32.2,29.62,West,271,4.0,-999.0,89,0.00,,,0.33,Wunderground v.1.15,2013-02-28 01:16:00,
2013-02-27 20:22:00,35.0,32.1,29.62,West,281,5.0,-999.0,89,0.00,,,0.33,Wunderground v.1.15,2013-02-28 01:22:00,
2013-02-27 20:28:00,35.0,32.1,29.62,WSW,249,4.0,-999.0,89,0.00,,,0.33,Wunderground v.1.15,2013-02-28 01:28:00,
2013-02-27 20:33:00,35.0,32.1,29.62,WSW,254,4.0,-999.0,89,0.00,,,0.33,Wunderground v.1.15,2013-02-28 01:33:00,
2013-02-27 20:39:00,35.0,32.1,29.61,WSW,238,3.0,-999.0,89,0.00,,,0.33,Wunderground v.1.15,2013-02-28 01:39:00,
2013-02-27 20:45:00,34.9,32.0,29.62,West,261,4.0,-999.0,89,0.00,,,0.33,Wunderground v.1.15,2013-02-28 01:45:00,
2013-02-27 20:51:00,34.8,31.9,29.62,WSW,240,4.0,-999.0,89,0.00,,,0.33,Wunderground v.1.15,2013-02-28 01:51:00,
2013-02-27 20:57:00,34.8,31.9,29.62,SW,219,4.0,-999.0,89,0.00,,,0.33,Wunderground v.1.15,2013-02-28 01:57:00,
2013-02-27 21:03:00,34.8,31.9,29.62,SW,217,3.0,-999.0,89,0.00,,,0.33,Wunderground v.1.15,2013-02-28 02:03:00,
2013-02-27 21:09:00,34.7,31.5,29.62,SSW,210,5.0,-999.0,88,0.00,,,0.33,Wunderground v.1.15,2013-02-28 02:09:00,
2013-02-27 21:15:00,34.7,31.5,29.62,West,273,5.0,-999.0,88,0.00,,,0.33,Wunderground v.1.15,2013-02-28 02:15:00,
2013-02-27 21:21:00,34.7,31.5,29.62,South,189,4.0,-999.0,88,0.00,,,0.33,Wunderground v.1.15,2013-02-28 02:21:00,
2013-02-27 21:26:00,34.6,31.4,29.62,WSW,239,3.0,-999.0,88,0.00,,,0.33,Wunderground v.1.15,2013-02-28 02:26:00,
2013-02-27 21:32:00,34.6,31.4,29.62,SSW,207,5.0,-999.0,88,0.00,,,0.33,Wunderground v.1.15,2013-02-28 02:32:00,
2013-02-27 21:38:00,34.6,31.1,29.62,WSW,254,6.0,-999.0,87,0.00,,,0.33,Wunderground v.1.15,2013-02-28 02:38:00,
2013-02-27 21:44:00,34.7,31.2,29.62,West,261,5.0,-999.0,87,0.00,,,0.33,Wunderground v.1.15,2013-02-28 02:44:00,
2013-02-27 21:50:00,34.6,31.1,29.62,SW,236,4.0,-999.0,87,0.00,,,0.33,Wunderground v.1.15,2013-02-28 02:50:00,
2013-02-27 21:56:00,34.6,30.8,29.61,WSW,239,4.0,-999.0,86,0.00,,,0.33,Wunderground v.1.15,2013-02-28 02:56:00,
2013-02-27 22:02:00,34.6,30.8,29.61,WSW,251,4.0,-999.0,86,0.00,,,0.33,Wunderground v.1.15,2013-02-28 03:02:00,
2013-02-27 22:08:00,34.5,30.7,29.61,SW,218,4.0,-999.0,86,0.00,,,0.33,Wunderground v.1.15,2013-02-28 03:08:00,
2013-02-27 22:13:00,34.4,30.6,29.61,West,266,3.0,-999.0,86,0.00,,,0.33,Wunderground v.1.15,2013-02-28 03:13:00,
2013-02-27 22:19:00,34.4,30.6,29.62,WSW,258,4.0,-999.0,86,0.00,,,0.33,Wunderground v.1.15,2013-02-28 03:19:00,
2013-02-27 22:25:00,34.4,30.6,29.61,SSW,203,4.0,-999.0,86,0.00,,,0.33,Wunderground v.1.15,2013-02-28 03:25:00,
2013-02-27 22:30:00,34.4,30.6,29.61,WSW,254,4.0,-999.0,86,0.00,,,0.33,Wunderground v.1.15,2013-02-28 03:30:00,
2013-02-27 22:36:00,34.4,30.4,29.61,SW,221,5.0,-999.0,85,0.00,,,0.33,Wunderground v.1.15,2013-02-28 03:36:00,
2013-02-27 22:42:00,34.2,30.2,29.61,WSW,252,5.0,-999.0,85,0.00,,,0.33,Wunderground v.1.15,2013-02-28 03:42:00,
2013-02-27 22:48:00,34.2,30.2,29.61,SW,236,5.0,-999.0,85,0.00,,,0.33,Wunderground v.1.15,2013-02-28 03:48:00,
2013-02-27 22:53:00,34.1,30.1,29.61,WSW,247,5.0,-999.0,85,0.00,,,0.33,Wunderground v.1.15,2013-02-28 03:53:00,
2013-02-27 22:59:00,34.1,30.1,29.61,WSW,243,5.0,-999.0,85,0.00,,,0.33,Wunderground v.1.15,2013-02-28 03:59:00,
2013-02-27 23:05:00,34.1,30.1,29.61,SW,219,5.0,-999.0,85,0.00,,,0.33,Wunderground v.1.15,2013-02-28 04:05:00,
2013-02-27 23:11:00,34.1,30.1,29.61,South,184,5.0,-999.0,85,0.00,,,0.33,Wunderground v.1.15,2013-02-28 04:11:00,
2013-02-27 23:16:00,34.0,30.0,29.61,SW,234,4.0,-999.0,85,0.00,,,0.33,Wunderground v.1.15,2013-02-28 04:16:00,
2013-02-27 23:22:00,33.9,30.2,29.60,SSW,213,4.0,-999.0,86,0.00,,,0.33,Wunderground v.1.15,2013-02-28 04:22:00,
2013-02-27 23:28:00,33.8,30.1,29.60,SSW,209,4.0,-999.0,86,0.00,,,0.33,Wunderground v.1.15,2013-02-28 04:28:00,
2013-02-27 23:34:00,33.8,30.1,29.60,WSW,238,4.0,-999.0,86,0.00,,,0.33,Wunderground v.1.15,2013-02-28 04:34:00,
2013-02-27 23:40:00,33.7,30.0,29.60,WSW,238,4.0,-999.0,86,0.00,,,0.33,Wunderground v.1.15,2013-02-28 04:40:00,
2013-02-27 23:46:00,33.7,30.2,29.60,SW,229,4.0,-999.0,87,0.00,,,0.33,Wunderground v.1.15,2013-02-28 04:46:00,
2013-02-27 23:52:00,33.7,30.2,29.59,SSW,207,5.0,-999.0,87,0.00,,,0.33,Wunderground v.1.15,2013-02-28 04:52:00,
2013-02-27 23:58:00,33.7,30.2,29.59,SW,221,4.0,-999.0,87,0.00,,,0.33,Wunderground v.1.15,2013-02-28 04:58:00,